Regional Weather Roundup
Issued by NWS

Home | Current Version | Previous Version | Text Only | Print | Product List | Glossary Off
Versions: 1 2 3 4 5 6 7 8 9 10 11 12 13 14 15 16 17 18 19 20 21 22 23 24 25 26 27 28 29 30 31 32 33 34 35 36 37 38 39 40 41 42 43 44 45 46 47 48 49 50

000
ASUS43 KMKX 300611
RWRWI

WISCONSIN REGIONAL WEATHER ROUNDUP
NATIONAL WEATHER SERVICE MILWAUKEE/SULLIVAN WI
100 AM CDT TUE MAY 30 2017

NOTE: "FAIR" INDICATES FEW OR NO CLOUDS BELOW 12,000 FEET WITH NO
SIGNIFICANT WEATHER AND/OR OBSTRUCTIONS TO VISIBILITY.

WIZ001-002-006>008-014>016-023>028-300700-
NORTHWEST WISCONSIN

CITY           SKY/WX    TMP DP  RH WIND       PRES   REMARKS
SUPERIOR ARPT  NOT AVBL
ASHLAND        CLOUDY    52  45  77 SW8       29.76S
6HR MIN TEMP:  47; 6HR MAX TEMP:  57;

HAYWARD        CLOUDY    52  46  80 SW7       29.79F
6HR MIN TEMP:  48; 6HR MAX TEMP:  58; 6HR PCP: TRACE;

SIREN          CLOUDY    52  45  78 W9        29.81F
6HR MIN TEMP:  51; 6HR MAX TEMP:  58;

CUMBERLAND     MOCLDY    50  45  81 W9        29.82F
RICE LAKE      MOCLDY    52  46  81 W6        29.84S
6HR MIN TEMP:  52; 6HR MAX TEMP:  57; 6HR PCP:  0.01;

CHETEK         MOCLDY    49  46  88 CALM      29.83S
6HR MIN TEMP:  47; 6HR MAX TEMP:  60;

LADYSMITH      CLOUDY    50  47  88 SW7       29.83S
6HR MIN TEMP:  50; 6HR MAX TEMP:  59; 6HR PCP:  0.03;

EAU CLAIRE     CLOUDY    52  46  80 SW7       29.83S
6HR MIN TEMP:  50; 6HR MAX TEMP:  61;

MENOMONIE      CLOUDY    55  47  77 W7        29.85S
6HR MIN TEMP:  53; 6HR MAX TEMP:  61;

NEW RICHMOND   CLOUDY    51  46  83 W7        29.85S
6HR MIN TEMP:  51; 6HR MAX TEMP:  58;

OSCEOLA        CLOUDY    54  48  81 W9        29.87F
6HR MIN TEMP:  53; 6HR MAX TEMP:  59;

$$

WIZ003>005-009-010-017-018-300700-
NORTH CENTRAL WISCONSIN

CITY           SKY/WX    TMP DP  RH WIND       PRES   REMARKS
MANITOWISH WTR CLOUDY    47  47 100 CALM      29.77S
6HR MIN TEMP:  46; 6HR MAX TEMP:  55;

ARBOR VITAE    PTCLDY    49  47  92 W3        29.77F
6HR MIN TEMP:  49; 6HR MAX TEMP:  57;

WOODRUFF       PTCLDY    49  47  92 W3        29.77F
6HR MIN TEMP:  49; 6HR MAX TEMP:  57;

RHINELANDER    MOCLDY    50  49  96 W7        29.79S
6HR MIN TEMP:  51; 6HR MAX TEMP:  53; 6HR PCP:  0.13;

EAGLE RIVER    CLOUDY    48  46  92 W6        29.76S
6HR MIN TEMP:  48; 6HR MAX TEMP:  55;

LAND O LAKES   CLOUDY    48  47  93 W3        29.78R
6HR MIN TEMP:  48; 6HR MAX TEMP:  54; 6HR PCP:  0.05;

PHILLIPS       CLOUDY    48  48 100 SW6       29.79F
6HR MIN TEMP:  48; 6HR MAX TEMP:  54; 6HR PCP:  0.07;

TOMAHAWK       PTCLDY    48  46  95 W3        29.80S
6HR MIN TEMP:  48; 6HR MAX TEMP:  54;

MEDFORD        PTCLDY    48  46  93 W6        29.81S
6HR MIN TEMP:  48; 6HR MAX TEMP:  54; 6HR PCP:  0.10;

MERRILL        CLOUDY    51  50  95 W8        29.81S
6HR MIN TEMP:  51; 6HR MAX TEMP:  56;

$$

WIZ029-030-035-036-043>047-300700-
CENTRAL WISCONSIN

CITY           SKY/WX    TMP DP  RH WIND       PRES   REMARKS
WAUSAU         CLOUDY    52  50  93 W9        29.80S
6HR MIN TEMP:  52; 6HR MAX TEMP:  53; 6HR PCP:  0.16;

MOSINEE        CLOUDY    50  50 100 W7        29.82F
MARSHFIELD     CLEAR     50  46  86 W8        29.82S
6HR MIN TEMP:  50; 6HR MAX TEMP:  55; 6HR PCP:  0.02;

STEVENS POINT  PTCLDY    50  50 100 SW8       29.83S
6HR MIN TEMP:  50; 6HR MAX TEMP:  58;

WAUPACA        CLOUDY    57  50  77 W7        29.82S
6HR MIN TEMP:  55; 6HR MAX TEMP:  64;

WAUTOMA        CLEAR     52  49  89 W6        29.84S
6HR MIN TEMP:  52; 6HR MAX TEMP:  61;

WISC RAPIDS    PTCLDY    51  48  89 SW6       29.84F
6HR MIN TEMP:  51; 6HR MAX TEMP:  62;

CAMP DOUGLAS   CLEAR     48  46  93 W5        29.85F
6HR MIN TEMP:  48; 6HR MAX TEMP:  57;

$$

WIZ011>013-019>022-031-037>040-048>050-300700-
NORTHEAST WISCONSIN

CITY           SKY/WX    TMP DP  RH WIND       PRES   REMARKS
ANTIGO         MOCLDY    49  49  99 W7        29.79S
6HR MIN TEMP:  49; 6HR MAX TEMP:  54; 6HR PCP:  0.01;

SHAWANO        CLOUDY    55  50  84 W7        29.80R
6HR MIN TEMP:  54; 6HR MAX TEMP:  62; 6HR PCP:  0.01;

OCONTO         PTCLDY    51  48  92 W7        29.78S
6HR MIN TEMP:  50; 6HR MAX TEMP:  57; 6HR PCP:  0.02;

STURGEON BAY   PTCLDY    53  49  86 SW8       29.78S
6HR MIN TEMP:  53; 6HR MAX TEMP:  63; 6HR PCP:  0.01;

GREEN BAY      CLEAR     55  51  86 W13       29.80S
6HR MIN TEMP:  55; 6HR MAX TEMP:  63; 6HR PCP: TRACE;

MANITOWOC      CLEAR     56  49  77 W8        29.81S
6HR MIN TEMP:  56; 6HR MAX TEMP:  64;

APPLETON       CLOUDY    54  46  76 W9        29.80F
CLINTONVILLE   CLOUDY    54  46  76 W6        29.81S
OSHKOSH        PTCLDY    54  49  83 VRB5      29.81F
6HR MIN TEMP:  53; 6HR MAX TEMP:  61;

$$

WIZ032>034-041-042-053>061-300700-
SOUTHWEST WISCONSIN

CITY           SKY/WX    TMP DP  RH WIND       PRES   REMARKS
LA CROSSE      MOCLDY    56  49  77 W7        29.86F
6HR MIN TEMP:  55; 6HR MAX TEMP:  64; 6HR PCP: TRACE;

SPARTA         CLEAR     44  44  99 CALM      29.87S
6HR MIN TEMP:  44; 6HR MAX TEMP:  59;

VIROQUA        CLEAR     50  48  92 N7        29.89S
6HR MIN TEMP:  50; 6HR MAX TEMP:  62;

BOSCOBEL       CLEAR     52  47  83 SW3       29.89F
6HR MIN TEMP:  52; 6HR MAX TEMP:  68;

PRAIRIE DU CHI PTCLDY    56  46  70 W8        29.90S
6HR MIN TEMP:  56; 6HR MAX TEMP:  67;

PLATTEVILLE    CLEAR     54  49  84 W9        29.92R
6HR MIN TEMP:  52; 6HR MAX TEMP:  69;

$$

WIZ056-057-062-063-064-067-068-300700-
SOUTH CENTRAL WISCONSIN

CITY           SKY/WX    TMP DP  RH WIND       PRES   REMARKS
REEDSBURG      CLEAR     54  49  82 W9        29.87S
6HR MIN TEMP:  54; 6HR MAX TEMP:  57;

BARABOO/DELLS  PTCLDY    53  47  82 W7        29.86F
6HR MIN TEMP:  51; 6HR MAX TEMP:  56;

LONE ROCK      CLEAR     55  47  74 W5        29.88S
6HR MIN TEMP:  55; 6HR MAX TEMP:  67;

MINERAL POINT  CLEAR     54  48  82 SW6       29.91R
MADISON        CLEAR     54  48  80 CALM      29.86S
6HR MIN TEMP:  52; 6HR MAX TEMP:  65; 6HR PCP:  0.06;

MIDDLETON      CLEAR     53  48  83 W7        29.88S
6HR MIN TEMP:  52; 6HR MAX TEMP:  64; 6HR PCP:  0.08;

WATERTOWN      CLEAR     51  51  99 W5        29.86S
6HR MIN TEMP:  50; 6HR MAX TEMP:  64;

MONROE         CLEAR     54  45  71 W12       29.90S
JANESVILLE     CLEAR     55  45  67 W7        29.89R
$$

WIZ051-052-058>065-066-070>072-300700-
SOUTHEAST WISCONSIN

CITY           SKY/WX    TMP DP  RH WIND       PRES   REMARKS
MILWAUKEE      PTCLDY    56  49  77 SW7       29.87R
6HR MIN TEMP:  55; 6HR MAX TEMP:  62; 6HR PCP:  0.08;

WAUKESHA       CLEAR     50  46  87 SW7       29.87S
MILWAUKEE/TIMM   N/A     52  45  76 SW3       29.86S
RACINE         CLEAR     55  46  71 SW5       29.88S
6HR MIN TEMP:  53; 6HR MAX TEMP:  69; 6HR PCP: TRACE;

KENOSHA        CLEAR     51  46  83 SW5       29.87S
6HR MIN TEMP:  50; 6HR MAX TEMP:  68;

FOND DU LAC    PTCLDY    53  47  79 SW3       29.83S
6HR MIN TEMP:  53; 6HR MAX TEMP:  62;

SHEBOYGAN      CLEAR     51  49  92 W7        29.82S
6HR MIN TEMP:  51; 6HR MAX TEMP:  62; 6HR PCP: TRACE;

WEST BEND      CLEAR     54  48  82 W8        29.84S
JUNEAU         CLEAR     51  47  88 CALM      29.86S
6HR MIN TEMP:  50; 6HR MAX TEMP:  61;

$$

LSZ147-162-300700-
LAKE SUPERIOR

STATION/POSITION TIME  TEMP    WIND        PRES    WAVE
                       AIR SEA DIR/SP/G            HT/PER
                 (UTC) (F)     (DEG/KT/KT) (MB)    (FT/S)
W MID LAKE BUOY  0450   42 37  240/ 14/ 16 1006.3R   2/ 4
DEVILS ISLAND    0600   47     260/ 11/ 13 1007.3S
SAXON HARBOR     0530   53     200/  4/  7 1007.5F
$$

LMZ867-665-643>646-300700-
LAKE MICHIGAN

STATION/POSITION TIME  TEMP    WIND        PRES    WAVE
                       AIR SEA DIR/SP/G            HT/PER
                 (UTC) (F)     (DEG/KT/KT) (MB)    (FT/S)
CHAMBERS ISLAND  0540   53     210/  5/  8 1007.5S
N MID LAKE BUOY  0450   46 41  220/ 10/ 12 1007.9R   2/



USA.gov is the U.S. government's official web portal to all federal, state and local government web resources and services.